Location: Dehesa de la Cepeda
(40.6574°N, 4.3013°W)
Time: 23:33:31
(UTC+00:00)

SR - Pass Details

Date: 02 August 2021
Orbit: 580 x 874 km, 66.7° (Epoch: 17 September)

Event Time Altitude Azimuth Distance (km) Brightness Sun altitude
Rises 04:35:09 0° 166° (SSE) 3,447 ? -7.5°
Reaches altitude 10° 04:38:20 10° 150° (SSE) 2,501 ? -7.0°
Maximum altitude 04:42:19 19° 106° (ESE) 1,899 ? -6.4°
Drops below altitude 10° 04:46:13 10° 63° (ENE) 2,435 ? -5.7°
Sets 04:49:15 0° 46° (NE) 3,327 ? -5.2°
